sat.trackr.live / text

‹ back to catalog

STARLINK-35887

NORAD 66959 · 2025-288A

PAYLOAD ACTIVE UNKNOWN

§ Identity

Operator
Country
US
Launch date
2025-12-08
Launch site
AFETR
Launch vehicle
Mass (kg)
RCS (m²)

Purposes: comms

External: N2YO · Heavens-Above · Gunter

§ Orbital elements

Epoch: 2026-09-20T07:29:24.439488Z

Period
94.27 min
Inclination
42.9998°
Eccentricity
0.0000535
Mean motion
15.27586822 rev/d
Perigee alt
482.7 km
Apogee alt
483.4 km
Semi-major
6,861.2 km
B*
4.2073e-4
RAAN
4.2278°
Arg perigee
270.8555°
Mean anomaly
89.2235°
Rev number
4,505

§ Raw data

STARLINK-358871 66959U 25288A   26263.31208842  .00011336  00000+0  42073-3 0  99992 66959  42.9998   4.2278 0000535 270.8555  89.2235 15.27586822 45055

JSON: /api/v1/satellites/66959 · /tle

For live sub-satellite position, see the globe view (requires WebGL).

§ Visibility from observer

Set your observer location to see the next 7 days of passes ≥ 10°. The values pass through the URL so the page stays shareable.

No JS? Fill the form by hand. The geolocation button needs JavaScript.